sat.trackr.live / text

‹ back to catalog

STARLINK-30506

NORAD 58072 · 2023-158X

PAYLOAD ACTIVE UNKNOWN

§ Identity

Operator
Country
US
Launch date
2023-10-13
Launch site
AFETR
Launch vehicle
Mass (kg)
RCS (m²)

Purposes: comms

External: N2YO · Heavens-Above · Gunter

§ Orbital elements

Epoch: 2026-09-20T18:33:26.389440Z

Period
94.27 min
Inclination
43.0030°
Eccentricity
0.0001532
Mean motion
15.27575583 rev/d
Perigee alt
482.0 km
Apogee alt
484.1 km
Semi-major
6,861.2 km
B*
1.8587e-5
RAAN
5.4645°
Arg perigee
272.6501°
Mean anomaly
87.4176°
Rev number
16,340

§ Raw data

STARLINK-305061 58072U 23158X   26263.77322210  .00000249  00000+0  18587-4 0  99912 58072  43.0030   5.4645 0001532 272.6501  87.4176 15.27575583163407

JSON: /api/v1/satellites/58072 · /tle

For live sub-satellite position, see the globe view (requires WebGL).

§ Visibility from observer

Set your observer location to see the next 7 days of passes ≥ 10°. The values pass through the URL so the page stays shareable.

No JS? Fill the form by hand. The geolocation button needs JavaScript.